STARLINK-5265 (55317 NORAD) Tracking and Keplerian Element Data

This shows tracking and keplerian element data for the satellite.

Feedback or suggestion? Click here.




ElementValue
Catalog55317
NameSTARLINK-5265
Epoch Orbit1739
Epoch Day127.11235142
Epoch Year2023
RAAN126.4369
Inclination69.9977
Eccentricity0.0003252
Argument of Perigee258.9683
Mean Anonmoly101.1147
Mean Motion15.69922393
Decay Rate1.284E-05
L11 55317U 23010BA 23127.11235142 .00001284 00000+0 12449-4 0 9999
L22 55317 69.9977 126.4369 0003252 258.9683 101.1147 15.69922393 17398



Live tracking and technical data element details for STARLINK-5265 (NORAD 55317). STARLINK-5265 can be tracked NOW for your location showing map with azimuth and elevation plus other details from your city location.







IsCatalogInMostPopularTable: catalog: 55317, numindb: 1
Update: records affected: 1



GetName: 55317 STARLINK-5265

Hit Count: updated at: Mon, 05 Jun 2023 20:24:26 GMT